Location: Newark
(23.3970°S, 47.6010°W)
Time: 21:31:16
(UTC+00:00)

Vanguard 1 - All Passes

Search period start: 17 February 2020 00:00
Search period end: 27 February 2020 00:00
Orbit: 650 x 3833 km, 34.2° (Epoch: 16 February)

Date Brightness Start Highest point End Pass type
(mag) Time Alt. Az. Time Alt. Az. Time Alt. Az.
17 Feb - 01:09:18 10° W 01:16:16 62° SSW 01:29:27 10° ESE visible
17 Feb - 03:30:18 10° WSW 03:40:53 54° S 03:59:57 10° E visible
17 Feb - 05:51:52 10° WSW 06:07:36 78° SSE 06:31:27 10° ENE visible
17 Feb - 08:15:07 10° WSW 08:34:45 59° NW 08:57:08 10° NE visible
17 Feb - 10:45:29 10° W 11:00:43 22° NW 11:14:58 10° N daylight
17 Feb - 23:10:52 10° NW 23:16:02 61° NE 23:24:43 10° ESE visible
18 Feb - 01:30:30 10° W 01:37:48 54° S 01:51:26 10° ESE visible
18 Feb - 03:51:32 10° WSW 04:02:45 56° SSE 04:22:42 10° E visible
18 Feb - 06:13:03 10° WSW 06:29:20 88° SSE 06:53:20 10° ENE visible
18 Feb - 08:36:57 10° WSW 08:56:11 49° NW 09:17:32 10° NNE visible
18 Feb - 11:11:48 10° WNW 11:22:10 15° NW 11:31:59 10° NNW daylight
18 Feb - 21:16:08 10° NNE 21:17:40 11° NE 21:19:20 10° ENE daylight
18 Feb - 23:31:33 10° WNW 23:36:55 89° NNE 23:46:17 10° ESE visible
19 Feb - 01:51:45 10° WSW 01:59:26 49° S 02:13:36 10° ESE visible
19 Feb - 04:12:42 10° WSW 04:24:33 61° SSE 04:45:25 10° E visible
19 Feb - 06:34:16 10° WSW 06:50:58 81° NNW 07:14:54 10° NE visible
19 Feb - 08:59:11 10° W 09:17:37 39° NW 09:37:31 10° NNE daylight
19 Feb - 21:34:39 10° N 21:38:12 21° NE 21:42:39 10° E daylight
19 Feb - 23:52:29 10° WNW 23:58:02 69° SSW 00:07:50 10° ESE visible
20 Feb - 02:13:01 10° WSW 02:21:07 48° S 02:36:00 10° ESE visible
20 Feb - 04:33:49 10° WSW 04:46:16 69° SSE 05:07:58 10° ENE visible
20 Feb - 06:55:34 10° WSW 07:12:32 69° NW 07:36:05 10° NE visible
20 Feb - 09:22:05 10° W 09:39:03 30° NW 09:56:59 10° N daylight
20 Feb - 21:54:33 10° NNW 21:58:48 37° NE 22:04:38 10° ESE daylight
21 Feb - 00:13:36 10° W 00:19:20 54° SSW 00:29:25 10° ESE visible
21 Feb - 02:34:13 10° WSW 02:42:48 49° S 02:58:36 10° E visible
21 Feb - 04:54:53 10° WSW 05:07:53 78° SSE 05:30:15 10° ENE visible
21 Feb - 07:17:03 10° WSW 07:34:05 57° NW 07:56:54 10° NE visible
21 Feb - 09:46:03 10° W 10:00:36 22° NW 10:15:39 10° N daylight
21 Feb - 22:15:00 10° NW 22:19:32 62° NNE 22:26:12 10° ESE visible
22 Feb - 00:34:48 10° W 00:40:46 46° S 00:51:11 10° ESE visible
22 Feb - 02:55:20 10° WSW 03:04:28 53° SSE 03:21:17 10° E visible
22 Feb - 05:15:56 10° WSW 05:29:26 89° SSE 05:52:13 10° ENE visible
22 Feb - 07:38:46 10° WSW 07:55:37 46° NW 08:17:20 10° NNE visible
22 Feb - 10:12:11 10° WNW 10:22:22 15° NW 10:32:40 10° NNW daylight
22 Feb - 20:19:45 10° NNE 20:20:59 11° NE 20:22:15 10° ENE daylight
22 Feb - 22:35:45 10° WNW 22:40:26 85° SSW 22:47:35 10° ESE visible
23 Feb - 00:56:03 10° WSW 01:02:16 42° S 01:13:09 10° ESE visible
23 Feb - 03:16:24 10° WSW 03:26:02 59° SSE 03:43:57 10° E visible
23 Feb - 05:37:03 10° WSW 05:50:57 79° NNW 06:13:50 10° NE visible
23 Feb - 08:00:55 10° W 08:17:11 37° NW 08:37:19 10° NNE visible
23 Feb - 20:38:20 10° NNW 20:41:43 21° NE 20:45:24 10° E daylight
23 Feb - 22:56:45 10° W 23:01:31 60° SSW 23:08:54 10° ESE visible
24 Feb - 01:17:15 10° WSW 01:23:49 42° S 01:35:22 10° ESE visible
24 Feb - 03:37:23 10° WSW 03:47:32 67° SSE 04:06:29 10° ENE visible
24 Feb - 05:58:16 10° WSW 06:12:28 66° NNW 06:35:04 10° NE visible
24 Feb - 08:23:43 10° W 08:38:51 28° NW 08:56:45 10° N visible
24 Feb - 20:58:21 10° NW 21:02:27 37° NE 21:07:11 10° ESE daylight
24 Feb - 23:17:56 10° W 23:22:45 45° SSW 23:30:17 10° ESE visible
25 Feb - 01:38:23 10° WSW 01:45:21 43° SSE 01:57:46 10° E visible
25 Feb - 03:58:21 10° WSW 04:08:57 78° SSE 04:28:46 10° ENE visible
25 Feb - 06:19:39 10° WSW 06:34:00 54° NW 06:55:54 10° NE visible
25 Feb - 08:47:38 10° W 09:00:38 20° NW 09:15:21 10° N daylight
25 Feb - 21:18:53 10° NW 21:23:15 66° NNE 21:28:34 10° ESE daylight
25 Feb - 23:39:11 10° WSW 23:44:06 38° S 23:51:49 10° ESE visible
26 Feb - 01:59:25 10° WSW 02:06:48 48° SSE 02:20:18 10° E visible
26 Feb - 04:19:19 10° WSW 04:30:20 89° NNW 04:50:43 10° ENE visible
26 Feb - 06:41:19 10° W 06:55:36 43° NW 07:16:20 10° NNE visible
26 Feb - 09:13:54 10° WNW 09:22:40 14° NW 09:32:02 10° NNW daylight
26 Feb - 19:22:10 10° N 19:24:25 13° NE 19:26:33 10° ENE daylight
26 Feb - 21:39:46 10° WNW 21:44:10 76° SSW 21:49:45 10° ESE daylight
